This is the latest recevied weather packets stored in our database for station/object K0NV. If no packets are shown the sender has not sent any weather packets the latest 1 day(s).
| Time | Temp. | Humidity | Pressure | Rain* | Wind** | Luminosity | Snow |
|---|---|---|---|---|---|---|---|
| 1777983044 | 13.89° C | 99% | 1007.3 hPa | 0 mm | 0 m/s | 56 W/m² | - |
| 1777982740 | 13.89° C | 99% | 1007.2 hPa | 0 mm | 0 m/s | 39 W/m² | - |
| 1777982436 | 13.89° C | 99% | 1007.2 hPa | 0 mm | 0 m/s | 34 W/m² | - |
| 1777982131 | 13.89° C | 99% | 1007.2 hPa | 0 mm | 0.45 m/s, 33° | 32 W/m² | - |
| 1777981829 | 13.89° C | 99% | 1007.4 hPa | 0 mm | 2.24 m/s, 47° | 29 W/m² | - |
| 1777981525 | 13.89° C | 99% | 1007.2 hPa | 0 mm | 0 m/s | 20 W/m² | - |
| 1777981222 | 14.44° C | 99% | 1007.2 hPa | 0 mm | 0 m/s | 19 W/m² | - |
| 1777980918 | 14.44° C | 99% | 1007.2 hPa | 0 mm | 0 m/s | 12 W/m² | - |
| 1777980614 | 14.44° C | 99% | 1007.2 hPa | 0 mm | 0 m/s | 6 W/m² | - |
| 1777980310 | 15° C | 99% | 1007.7 hPa | 0 mm | 0 m/s | 4 W/m² | - |
| 1777980009 | 15° C | 99% | 1007.1 hPa | 0 mm | 0 m/s | 2 W/m² | - |
| 1777979702 | 15° C | 99% | 1007 hPa | 0 mm | 0 m/s | 1 W/m² | - |
| 1777979399 | 15° C | 99% | 1007.1 hPa | 1.78 mm | 0 m/s | 0 W/m² | - |
| 1777979095 | 15° C | 99% | 1007.2 hPa | 1.78 mm | 0 m/s | 0 W/m² | - |
| 1777978792 | 15° C | 99% | 1006.3 hPa | 0 mm | 0 m/s | 0 W/m² | - |
| 1777978489 | 15° C | 99% | 1006.6 hPa | 0 mm | 0 m/s | 0 W/m² | - |
| 1777978185 | 15° C | 99% | 1007.5 hPa | 0 mm | 0 m/s | 0 W/m² | - |
| 1777977882 | 15° C | 99% | 1007.8 hPa | 0 mm | 0 m/s | 0 W/m² | - |
| 1777977579 | 15° C | 99% | 1006.9 hPa | 0 mm | 0 m/s | 0 W/m² | - |
| 1777977277 | 15° C | 99% | 1007.8 hPa | 0 mm | 0 m/s | 0 W/m² | - |
| 1777976973 | 15° C | 99% | 1007.1 hPa | 1.27 mm | 0 m/s | 0 W/m² | - |
| 1777976670 | 15° C | 99% | 1007.1 hPa | 1.27 mm | 0 m/s | 0 W/m² | - |
| 1777976367 | 14.44° C | 99% | 1007.2 hPa | 0 mm | 0 m/s | 0 W/m² | - |
| 1777976067 | 14.44° C | 99% | 1007.1 hPa | 0 mm | 0 m/s | 0 W/m² | - |
| 1777975763 | 14.44° C | 99% | 1007.1 hPa | 1.78 mm | 0 m/s | 0 W/m² | - |
* Rain latest hour (hover to see other rain measurements)
** Current wind speed in m/s (hover to see current wind gust speed)